This is the latest recevied weather packets stored in our database for station/object OE7AOT-2. If no packets are shown the sender has not sent any weather packets the latest 1 day(s).
| Time | Temp. | Humidity | Pressure | Rain* | Wind** | Luminosity | Snow |
|---|---|---|---|---|---|---|---|
| 1778074426 | 43.33° C | 43% | 914.3 hPa | 0 mm | - | - | - |
| 1778074357 | 41.67° C | 44% | 914.4 hPa | 0 mm | - | - | - |
| 1778074289 | 40° C | 45% | 914.4 hPa | 0 mm | - | - | - |
| 1778074152 | 41.67° C | 43% | 914.3 hPa | 0 mm | - | - | - |
| 1778073810 | 49.44° C | 38% | 914.2 hPa | 0 mm | - | - | - |
| 1778073673 | 48.89° C | 40% | 914.3 hPa | 0 mm | - | - | - |
| 1778073536 | 47.78° C | 41% | 914.3 hPa | 0 mm | - | - | - |
| 1778073057 | 37.78° C | 48% | 914.5 hPa | 0 mm | - | - | - |
| 1778072920 | 38.89° C | 47% | 914.4 hPa | 0 mm | - | - | - |
| 1778072783 | 42.78° C | 43% | 914.4 hPa | 0 mm | - | - | - |
| 1778072578 | 43.89° C | 42% | 914.6 hPa | 0 mm | - | - | - |
| 1778071962 | 45° C | 41% | 914.5 hPa | 0 mm | - | - | - |
| 1778071825 | 42.78° C | 42% | 914.5 hPa | 0 mm | - | - | - |
| 1778071688 | 38.33° C | 47% | 914.4 hPa | 0 mm | - | - | - |
| 1778071346 | 35.56° C | 49% | 914.5 hPa | 0 mm | - | - | - |
| 1778071209 | 39.44° C | 46% | 914.5 hPa | 0 mm | - | - | - |
| 1778070935 | 42.22° C | 44% | 914.7 hPa | 0 mm | - | - | - |
| 1778070867 | 40.56° C | 46% | 914.7 hPa | 0 mm | - | - | - |
| 1778070730 | -12.22° C | - | - | - | - | - | - |
| 1778070593 | 35.56° C | 53% | 914.7 hPa | 0 mm | - | - | - |
| 1778070456 | 35° C | 54% | 914.9 hPa | 0 mm | - | - | - |
| 1778070251 | 33.89° C | 57% | 914.9 hPa | 0 mm | - | - | - |
| 1778070114 | 31.67° C | 59% | 915 hPa | 0 mm | - | - | - |
| 1778069977 | 32.78° C | 58% | 914.9 hPa | 0 mm | - | - | - |
| 1778069840 | 31.11° C | 60% | 914.8 hPa | 0 mm | - | - | - |
* Rain latest hour (hover to see other rain measurements)
** Current wind speed in m/s (hover to see current wind gust speed)